EW2328 Weather Reports


time (UTC)temp
C
wind
direction
speed
KPH
gust
KPH
rain 1hr
cm
rain 24hr
cm
rain mn
cm
humidity
%
barometer
mb
20260509023537 13 293 1.6 9.7 0.00 0.00 0.00 81 1011.0
20260509022517 13 293 1.6 6.4 0.00 0.00 0.00 81 1011.0
20260509021517 13 0 1.6 3.2 0.00 0.00 0.00 81 1010.9
20260509020519 14 0.0 1.6 0.00 0.00 0.00 80 1010.5
20260509015517 14 0.0 1.6 0.00 0.00 0.00 79 1010.5
20260509014517 14 45 1.6 3.2 0.00 0.00 0.00 78 1010.5
20260509013538 15 0 1.6 4.8 0.00 0.00 0.00 77 1010.6
20260509012517 15 0.0 3.2 0.00 0.00 0.00 76 1010.5
20260509011517 15 338 1.6 4.8 0.00 0.00 0.00 75 1010.4
20260509010517 15 0.0 1.6 0.00 0.00 0.00 73 1010.5
20260509005537 16 293 1.6 8.0 0.00 0.00 0.00 68 1010.4
20260509004518 15 0.0 0.0 0.00 0.00 0.00 73 1009.8
20260509003518 16 0.0 0.0 0.00 0.00 0.00 72 1009.4
20260509002517 16 0.0 0.0 0.00 0.00 0.00 70 1009.6
20260509001517 16 0.0 0.0 0.00 0.00 0.00 65 1009.6
20260509000517 16 0.0 0.0 0.00 0.00 0.00 65 1009.7
20260508235517 16 0.0 0.0 0.00 0.00 0.00 69 1009.6
20260508234537 16 0.0 0.0 0.00 0.00 0.00 67 1009.6
20260508233519 16 0.0 0.0 0.00 0.00 0.00 67 1009.4
20260508232519 17 0.0 0.0 0.00 0.00 0.00 65 1009.6
20260508231519 17 0.0 0.0 0.00 0.00 0.00 60 1009.7
20260508230518 17 0.0 0.0 0.00 0.00 0.00 59 1009.5
20260508225539 17 0.0 0.0 0.00 0.00 0.00 58 1009.5
20260508224519 18 0.0 0.0 0.00 0.00 0.00 55 1009.3
20260508223519 18 0.0 0.0 0.00 0.00 0.00 54 1009.3
20260508222539 18 0.0 0.0 0.00 0.00 0.00 53 1009.3
20260508221519 18 0.0 0.0 0.00 0.00 0.00 53 1009.3
20260508220519 18 0.0 0.0 0.00 0.00 0.00 53 1009.3
20260508215519 18 0.0 1.6 0.00 0.00 0.00 53 1009.2
20260508214519 19 0.0 0.0 0.00 0.00 0.00 52 1009.2
20260508213518 19 0.0 1.6 0.00 0.00 0.00 52 1009.3
20260508212519 19 0.0 1.6 0.00 0.00 0.00 51 1009.3
20260508211519 19 0.0 1.6 0.00 0.00 0.00 52 1009.5
20260508210519 19 0.0 4.8 0.00 0.00 0.00 51 1009.5
20260508205519 19 0.0 0.0 0.00 0.00 0.00 52 1009.8
20260508204518 19 0.0 0.0 0.00 0.00 0.00 52 1010.2
20260508203519 20 0.0 3.2 0.00 0.00 0.00 54 1010.4
20260508202538 20 0.0 0.0 0.00 0.00 0.00 51 1010.6
20260508201539 20 0.0 1.6 0.00 0.00 0.00 49 1010.5
20260508200519 20 0.0 6.4 0.00 0.00 0.00 51 1010.7
20260508195520 20 0.0 4.8 0.00 0.00 0.00 50 1010.6
20260508194518 20 0.0 3.2 0.00 0.00 0.00 49 1010.9
20260508193519 20 0.0 6.4 0.00 0.00 0.00 47 1010.9
20260508192518 20 225 1.6 6.4 0.00 0.00 0.00 44 1011.0
20260508191519 21 225 1.6 6.4 0.00 0.00 0.00 44 1011.1
20260508190519 22 0.0 3.2 0.00 0.00 0.00 48 1011.1
20260508185558 21 203 3.2 14.5 0.00 0.00 0.00 51 1011.2
20260508184518 21 225 1.6 6.4 0.00 0.00 0.00 46 1011.6
20260508183518 21 225 1.6 6.4 0.00 0.00 0.00 51 1011.7
20260508182518 21 225 3.2 8.0 0.00 0.00 0.00 49 1011.9
20260508181519 20 225 1.6 8.0 0.00 0.00 0.00 45 1011.9
20260508180518 21 0.0 3.2 0.00 0.00 0.00 50 1012.4
20260508175538 20 225 1.6 4.8 0.00 0.00 0.00 48 1012.5
20260508174519 20 0.0 3.2 0.00 0.00 0.00 53 1012.6
20260508173518 19 0.0 3.2 0.00 0.00 0.00 52 1012.8
20260508172518 19 180 1.6 4.8 0.00 0.00 0.00 51 1012.9
20260508171518 20 0.0 3.2 0.00 0.00 0.00 50 1013.0
20260508170518 20 225 1.6 4.8 0.00 0.00 0.00 47 1013.2
20260508165518 20 225 1.6 6.4 0.00 0.00 0.00 49 1013.3
20260508164519 21 225 3.2 8.0 0.00 0.00 0.00 46 1013.7
20260508163518 21 203 1.6 4.8 0.00 0.00 0.00 52 1013.9
20260508162519 21 225 1.6 4.8 0.00 0.00 0.00 49 1014.1
20260508161519 21 0.0 3.2 0.00 0.00 0.00 52 1014.1
20260508160519 21 0.0 3.2 0.00 0.00 0.00 53 1014.1
20260508155519 20 203 1.6 3.2 0.00 0.00 0.00 52 1014.2
20260508154518 19 225 1.6 6.4 0.00 0.00 0.00 54 1014.3
20260508153518 20 0.0 3.2 0.00 0.00 0.00 55 1014.4
20260508152518 19 0.0 4.8 0.00 0.00 0.00 55 1014.6
20260508151518 19 0.0 3.2 0.00 0.00 0.00 55 1014.6
20260508150518 18 0.0 3.2 0.00 0.00 0.00 56 1014.6
20260508145518 18 270 1.6 8.0 0.00 0.00 0.00 56 1014.6
20260508144519 17 0.0 3.2 0.00 0.00 0.00 56 1014.6
20260508143518 17 248 1.6 4.8 0.00 0.00 0.00 57 1014.7
20260508142518 17 225 1.6 4.8 0.00 0.00 0.00 55 1014.8
20260508141518 17 0.0 3.2 0.00 0.00 0.00 56 1014.8
20260508140538 16 0.0 3.2 0.00 0.00 0.00 58 1015.0
20260508135518 16 0.0 3.2 0.00 0.00 0.00 60 1014.9
20260508134518 15 0.0 0.0 0.00 0.00 0.00 59 1014.9
20260508133518 14 0.0 9.7 0.00 0.00 0.00 61 1014.8
20260508132518 13 0.0 1.6 0.00 0.00 0.00 61 1014.8
20260508131518 13 0.0 4.8 0.00 0.00 0.00 61 1014.9
20260508130518 13 0.0 3.2 0.00 0.00 0.00 60 1014.8
20260508125538 13 0.0 1.6 0.00 0.00 0.00 65 1014.8
20260508124518 12 0.0 0.0 0.00 0.00 0.00 62 1014.7
20260508123518 12 0.0 0.0 0.00 0.00 0.00 65 1014.7
20260508122518 11 0.0 3.2 0.00 0.00 0.00 66 1014.7
20260508121518 11 0.0 4.8 0.00 0.00 0.00 68 1014.7
20260508120518 11 0.0 0.0 0.00 0.00 0.00 69 1014.7
20260508115519 10 0.0 0.0 0.00 0.00 0.00 70 1014.7
20260508114518 10 0.0 1.6 0.00 0.00 0.00 69 1014.6
20260508113518 10 0.0 0.0 0.00 0.00 0.00 71 1014.5
20260508112538 9 0.0 1.6 0.00 0.00 0.00 71 1014.4
20260508111518 9 0.0 0.0 0.00 0.00 0.00 71 1014.2
20260508110538 9 0.0 0.0 0.00 0.00 0.00 71 1014.2
20260508105538 9 0.0 0.0 0.00 0.00 0.00 71 1014.3
20260508104518 9 0.0 0.0 0.00 0.00 0.00 72 1014.3
20260508103518 8 0.0 0.0 0.00 0.00 0.00 72 1014.4
20260508102518 8 0.0 0.0 0.00 0.00 0.00 72 1014.3
20260508101518 8 0.0 0.0 0.00 0.00 0.00 74 1014.4
20260508100518 8 0.0 0.0 0.00 0.00 0.00 74 1014.2
20260508095518 8 0.0 0.0 0.00 0.00 0.00 74 1014.2
20260508094538 8 0.0 0.0 0.00 0.00 0.00 74 1014.2
20260508093518 8 0.0 0.0 0.00 0.00 0.00 76 1014.2
20260508092518 7 0.0 0.0 0.00 0.00 0.00 77 1014.3
20260508091518 7 0.0 0.0 0.00 0.00 0.00 77 1014.3
20260508090518 7 0.0 0.0 0.00 0.00 0.00 77 1014.3
20260508085518 7 0.0 0.0 0.00 0.00 0.00 75 1014.4
20260508084518 7 0.0 0.0 0.00 0.00 0.00 75 1014.4
20260508083518 7 0.0 0.0 0.00 0.00 0.00 76 1014.3
20260508082618 7 0.0 0.0 0.00 0.00 0.00 77 1014.1
20260508081538 7 0.0 0.0 0.00 0.00 0.00 75 1014.1
20260508080518 7 0.0 0.0 0.00 0.00 0.00 74 1014.0
20260508075518 7 0.0 0.0 0.00 0.00 0.00 74 1014.1
20260508074518 7 0.0 0.0 0.00 0.00 0.00 74 1014.1
20260508073518 7 0.0 0.0 0.00 0.00 0.00 73 1014.2
20260508072518 7 0.0 0.0 0.00 0.00 0.00 73 1014.1
20260508071538 7 0.0 0.0 0.00 0.00 0.00 71 1014.1
20260508070518 8 0.0 0.0 0.00 0.00 0.00 71 1014.3
20260508065518 8 0.0 0.0 0.00 0.00 0.00 70 1014.3
20260508064558 8 0.0 0.0 0.00 0.00 0.00 70 1014.3
20260508063519 8 0.0 0.0 0.00 0.00 0.00 72 1014.5
20260508062518 8 0.0 0.0 0.00 0.00 0.00 72 1014.8
20260508061518 8 0.0 0.0 0.00 0.00 0.00 71 1014.8
20260508060518 8 0.0 0.0 0.00 0.00 0.00 69 1014.7
20260508055518 8 0.0 0.0 0.00 0.00 0.00 69 1014.7
20260508054518 8 0.0 0.0 0.00 0.00 0.00 69 1014.7
20260508053518 8 0.0 0.0 0.00 0.00 0.00 69 1014.9
20260508052518 8 0.0 0.0 0.00 0.00 0.00 70 1014.9
20260508051538 8 0.0 0.0 0.00 0.00 0.00 68 1014.8
20260508050538 9 0.0 0.0 0.00 0.00 0.00 66 1014.8
20260508045518 9 0.0 1.6 0.00 0.00 0.00 65 1014.7
20260508044518 10 0.0 0.0 0.00 0.00 0.00 64 1014.7
20260508043518 10 0.0 1.6 0.00 0.00 0.00 63 1014.7
20260508042518 10 203 1.6 3.2 0.00 0.00 0.00 63 1014.7
20260508041558 10 203 1.6 3.2 0.00 0.00 0.00 63 1014.7
20260508040518 10 203 1.6 3.2 0.00 0.00 0.00 63 1014.7
20260508035537 10 203 1.6 4.8 0.00 0.00 0.00 63 1014.7
20260508034537 10 203 1.6 3.2 0.00 0.00 0.00 64 1014.6
20260508033537 10 203 1.6 3.2 0.00 0.00 0.00 64 1014.6
20260508032517 10 0.0 1.6 0.00 0.00 0.00 63 1014.6
20260508031517 10 203 1.6 4.8 0.00 0.00 0.00 63 1014.5
20260508030517 10 0.0 3.2 0.00 0.00 0.00 62 1014.6
20260508025517 10 203 3.2 6.4 0.00 0.00 0.00 63 1014.3
20260508024517 10 203 1.6 1.6 0.00 0.00 0.00 62 1014.4